Regional Weather Roundup
Issued by NWS

Home | Current Version | Previous Version | Text Only | Print | Product List | Glossary Off
Versions: 1 2 3 4 5 6 7 8 9 10 11 12 13 14 15 16 17 18 19 20 21 22 23 24 25 26 27 28 29 30 31 32 33 34 35 36 37 38 39 40 41 42 43 44 45 46 47 48 49 50

000
ASUS43 KIND 210359
RWRIN

WEATHER ROUNDUP FOR INDIANA
NATIONAL WEATHER SERVICE INDIANAPOLIS IN
1100 PM EST MON FEB 20 2017

NOTE: "FAIR" INDICATES FEW OR NO CLOUDS BELOW 12,000 FEET WITH NO
SIGNIFICANT WEATHER AND/OR OBSTRUCTIONS TO VISIBILITY.

* - STATION DOES NOT REPORT WEATHER SUCH AS PRECIPITATION OR FOG.

+ - STATION NOT QUALITY CONTROLLED BY THE NATIONAL WEATHER SERVICE.
    USE DATA WITH CAUTION...ESPECIALLY DEWPOINT AND RELATIVE
    HUMIDITY OBSERVATIONS.

INZ001>003-010>013-019-020-210500-
NORTHWEST INDIANA

CITY           SKY/WX    TMP DP  RH WIND       PRES   REMARKS
GARY /AIRPORT/ MOCLDY    61  43  51 SE10G18   29.95F
KNOX *+        CLOUDY    54  25  32 SE13      29.98F
LA PORTE +     CLOUDY    56  43  62 S14G20    29.99F

$$

LMZ046-743>745-210500-
SOUTHERN LAKE MICHIGAN

STATION/POSITION TIME  TEMP    WIND        PRES    WAVE
                       AIR SEA DIR/SP/G            HT
                 (UTC) (F)     (DEG/KT/KT) (MB)    (FT)
BURNS HARBOR     0340   60     170/ 13/ 27 1014.6F
MICHIGAN CITY    0330   58     130/ 17/ 21   N/A

$$

INZ004-005-014>016-021>024-210500-
NORTH CENTRAL INDIANA

CITY           SKY/WX    TMP DP  RH WIND       PRES   REMARKS
GOSHEN         CLOUDY    49  38  65 SE9       30.03F
SOUTH BEND     MOCLDY    56  42  59 SE14      30.01F
WARSAW +       CLOUDY    54  41  62 SE8       30.04S

$$

INZ006>009-017-018-025>027-210500-
NORTHEAST INDIANA

CITY           SKY/WX    TMP DP  RH WIND       PRES   REMARKS
ANGOLA *+      CLEAR     41  34  75 SE8       30.07F
FORT WAYNE     CLOUDY    47  40  76 E8        30.06F
KENDALLVILLE + CLOUDY    43  35  71 SE9       30.06F

$$

INZ028-029-035-036-043>045-051>053-210500-
WEST CENTRAL INDIANA

CITY           SKY/WX    TMP DP  RH WIND       PRES   REMARKS
LAFAYETTE      CLOUDY    56  47  71 SE8       29.98F
TERRE HAUTE    CLOUDY    57  45  64 SE7       29.99F

$$

INZ030>032-037>040-046>048-054>057-064-065-210500-
CENTRAL INDIANA

CITY           SKY/WX    TMP DP  RH WIND       PRES   REMARKS
FRANKFORT +    CLOUDY    56  49  78 SE10      30.03F
GREENWOOD *+   PTCLDY    55  48  76 SE6       30.04F
INDIANAPOLIS   CLOUDY    56  47  71 SE10      30.03F
-EAGLE CREEK   PTCLDY    58  47  66 SE6       30.02F
KOKOMO +       CLOUDY    54  46  74 SE10      30.03F
MT COMFORT *+  PTCLDY    54  46  76 SE7       30.04F
SHELBYVILLE    CLOUDY    56  46  69 SE9       30.03F

$$

INZ033-034-041-042-049-050-058-059-210500-
EAST CENTRAL INDIANA

CITY           SKY/WX    TMP DP  RH WIND       PRES   REMARKS
MUNCIE         CLOUDY    57  41  55 SE10      30.04F

$$

INZ060-061-067>069-081>083-085>088-210500-
SOUTHWEST INDIANA

CITY           SKY/WX    TMP DP  RH WIND       PRES   REMARKS
EVANSVILLE     CLOUDY    59  47  64 CALM      30.00F
HUNTINGBURG *+ CLOUDY    55  46  71 SE9       30.01F

$$

INZ062-063-066-070>080-084-089>092-210500-
SOUTH CENTRAL AND SOUTHEAST INDIANA

CITY           SKY/WX    TMP DP  RH WIND       PRES   REMARKS
BLOOMINGTON    PTCLDY    51  44  77 SE3       30.02F
MADISON *+     CLOUDY    57  43  58 E7        30.07F
SEYMOUR +      CLOUDY    55  45  67 CALM      30.04F

$$





USA.gov is the U.S. government's official web portal to all federal, state and local government web resources and services.